Погода Торгай

Погода Торгай : погода сейчас, прогноз погоды и архив. Всё, что Вы хотите узнать о погоде Торгай!

Хотите узнать прогноз погоды Торгай? Тогда Вам сюда: Погода Торгай

Поиск расширенной информации на нашем сайте:

Полезная информация:

Другие новости

Новости СМИ2

Главная страница сайта

Новости сайта

03.07.2017

Напоминаем, что на нашем специализированном сайте Метеоцентр.Азия вы можете получить высокодетализированные автоматические прогнозы погоды по пунктам России, СНГ и мира в авиационном формате (включающие направление и скорость ветра, видимость, явления погоды, количество и форму облачности, нижнюю и верхнюю границу облачности).

Рекомендуем:

Погода Торгай - сегодня

Время (UTC), дата Ветер
(°,м/с) 
Видим.   Явления Облачность Т
(°С)
Тd
(°С)
f(%) Тe
(°С)
Pmin
(гПа)
dP
(гПа)
Po
(мм)
O2
(г/м3)
Тmin Tmax R s Состояние
почвы
18 17.03.19 070 (В) н/о    6/0 средняя 
[Ac lent]
-2.4 -5.7 78 -7  1020.5  752  307    -0.4       
21 17.03.19 070 (В) н/о    6/0 средняя 
[Ac lent]
-3.6 -6.5 80 -8  1020.7  0.1  753  308           
00 18.03.19 050 (СВ) н/о    8/0 средняя 
[Ac lent]
-3.8 -6.4 82 -7  1019.6  -1  752  308           
03 18.03.19 050 (СВ) 10 км    4/0 средняя 
[Ac lent]
-4.1 -7.5 77 -8  1020.1  0.4  752  308        17  равномерный
мокрый или
старый снег
100% 
06 18.03.19 320 (СЗ) 10 км    ясно 
-1.8 -6 73 -5  1020.5  0.5  752  306  -4.9         
09 18.03.19 070 (В) 10 км    ясно 
+1.3 -3.2 72 -1  1020.6  0.2  753  302           
12 18.03.19 070 (В) 10 км    ясно 
+2 -2 75 +1  1020.5  0.1  753  301           
15 18.03.19 050 (СВ) н/о    ясно 
-0.3 -3.7 78 -2  1021.8  1.1  754  304    +2.2       
18 18.03.19 050 (СВ) н/о    ясно 
-2.3 -5.2 80 -3  1022.2  0.3  754  307    +2.2       
21 18.03.19 020 (С) н/о    ясно 
-4.1 -6.4 84 -5  1022.7  0.4  754  309           
00 19.03.19 020 (С) н/о    4/0 средняя 
[Ac lent]
-5.6 -7.4 87 -7  1023.4  0.5  754  311           
03 19.03.19 070 (В) 10 км    3/0 средняя 
[Ac lent]
-7.1 -9.2 85 -10  1024.4  0.9  755  313        15  равномерный
мокрый или
старый снег
100% 
06 19.03.19 070 (В) 10 км    3/0 верхняя 
[Ci fib]
-6.2 -8.9 81 -9  1025.4  1.1  756  313  -7.1         
09 19.03.19 070 (В) 10 км    4/0 верхняя 
[Ci fib]
-0.1 -4.2 74 -1  1024.9  -0.2  756  305           
12 19.03.19 070 (В) 10 км    3/0 верхняя 
[Ci fib]
+0.9 -3.3 73 1024  -0.8  755  304           
15 19.03.19 050 (СВ) н/о    3/0 средняя 
[Ac lent]
-3.1 -6.2 79 -5  1025  0.7  756  309    +1.1       
18 19.03.19 050 (СВ) н/о    ясно 
-6.2 -8.9 81 -9  1025.8  0.7  756  313    +1.1       
21 19.03.19 020 (С) н/о    ясно 
-8.8 -11.2 83 -10  1025.5  -0.6  756  316           
00 20.03.19 020 (С) н/о    ясно 
-9.9 -12.1 84 -12  1024.9  -0.5  755  317           
03 20.03.19 020 (С) 10 км    4/0 средняя 
[Ac lent]
-11.6 -13.6 85 -14  1024.9  -0.2  755  319        14  равномерный
мокрый или
старый снег
100% 
06 20.03.19 020 (С) 10 км    9/0 верхняя 
[Ci]
-5.8 -8.4 82 -7  1024.6  0.1  755  312  -11.8         
09 20.03.19 020 (С) 10 км    9/0 верхняя 
[Ci]
-0.4 -4.2 75 -1  1023.6  -0.6  755  305           
12 20.03.19 020 (С) 10 км    8/0 верхняя 
[Ci]
+0.5 -4.2 71 -1  1022.5  -1.1  754  304           
15 20.03.19 020 (С) н/о    6/0 средняя 
[Ac lent]
-2.1 -6 75 -4  1022.8  0.2  754  307    +0.7       
18 20.03.19 020 (С) н/о    ясно 
-4.3 -7.4 79 -7  1022.5  -0.4  754  309    +0.7       
Время (UTC), дата Ветер
(°,м/с) 
Видим.   Явления Облачность Т
(°С)
Тd
(°С)
f(%) Тe
(°С)
Pmin
(гПа)
dP
(гПа)
Po
(мм)
O2
(г/м3)
Тmin Tmax R s Состояние
почвы

Для получения пояснительной информации подведите курсор к названию столбца.

ПОГОДА Торгай - архив

Всё, что Вы хотите узнать о погоде Торгай - удобно и подробно!

Выберите нужную дату (начиная с 1 января 2018* года) и нажмите кнопку "Найти".
Будут отображены архивные сводки погоды по пункту Торгай, начиная с указанной даты.


Отображать данные в формате CSV (для использования в таблицах Excel)


Внимание! Наш архив погоды предназначен исключительно для личного некоммерческого использования в познавательных целях. Если Вам необходимы официальные справки о состоянии погоды (для производственных, юридических, коммерческих и т.п. целей), обращайтесь в органы Росгидромета.

*Примечание: данная дата относится к архиву по метеостанциям СССР (Россия, СНГ, Балтия).
Архив по метеостанциям Зарубежной Европы и Азии (кроме Китая) хранится 10 дней, по другим регионам земного шара (Китай, Африка, Америка, Австралия, Океания) - 1 день.

Торгай - район местоположения метеостанции


Название, широта, долгота, высота метеостанции:
Торгай 49.7°ш. 63.5°д. 123 м над ур. моря [Казахстан]

Дополнительная информация

В oтличие oт бoльшинства пoгoдных сайтoв мы публикуем пoдрoбную метеoинфoрмацию в детальнoм прoфессиoнальнoм фoрмате.

Характеристики температуры и влажнoсти вoздуха измеряются на высoте 2 м в тени вдали oт зданий и деревьев.
Скoрoсть ветра измеряется на высoте 10 м (на урoвне рoста челoвека скoрoсть ветра ниже в 1.5-2 раза). Если метеoстанция нахoдится в гoрoде или в лесу, тo скoрoсть ветра занижена на 2-4 м/с пo сравнению с oткрытым местoм. Скoрoсть ветра над акватoриями крупных рек и oзёр, а также на вершинах хoлмoв на 2-5 м/с выше, чем в oбычных услoвиях.
Атмoсфернoе давление в разных тoчках местнoсти мoжет значительнo oтличаться oт давления на метеoстанции, в зависимoсти oт услoвий рельефа (при пoдъёме на 10 м давление пoнижается примернo на 1 мм рт.ст.).